Location: Monfort
(47.1967°N, 0.2115°W)
Time: 10:34:35
(UTC+00:00)

ERS-2 - Pass Details

Date: 24 October 2020
Orbit: 493 x 497 km, 98.6° (Epoch: 27 November)

Event Time Altitude Azimuth Distance (km) Brightness Sun altitude
Rises 17:22:45 0° 18° (NNE) 2,588 5.5 -5.1°
Reaches altitude 10° 17:24:52 10° 22° (NNE) 1,700 4.5 -5.5°
Maximum altitude 17:28:28 58° 102° (ESE) 583 2.2 -6.1°
Drops below altitude 10° 17:32:03 10° 182° (S) 1,686 5.0 -6.7°
Sets 17:34:08 0° 187° (S) 2,564 6.0 -7.0°
